Time,TemperatureF,DewpointF,PressureIn,WindDirection,WindDirectionDegrees,WindSpeedMPH,WindSpeedGustMPH,Humidity,HourlyPrecipIn,Conditions,Clouds,dailyrainin,SoftwareType,DateUTC
2013-06-19 00:33:00,64.0,61.0,29.85,ENE,70,9.0,-999.0,91,0.00,,,-99.99,,2013-06-19 07:33:00,
2013-06-19 00:43:00,64.0,61.0,29.85,ENE,70,9.0,-999.0,91,0.00,,,-99.99,,2013-06-19 07:43:00,
2013-06-19 01:33:00,64.0,61.0,29.84,North,0,0.0,-999.0,89,0.00,,,-99.99,,2013-06-19 08:33:00,
2013-06-19 01:43:00,64.0,61.0,29.84,North,0,0.0,-999.0,89,0.00,,,-99.99,,2013-06-19 08:43:00,
2013-06-19 02:34:00,64.0,60.0,29.82,East,80,1.0,-999.0,88,0.00,,,-99.99,,2013-06-19 09:34:00,
2013-06-19 02:43:00,64.0,60.0,29.82,East,80,1.0,-999.0,88,0.00,,,-99.99,,2013-06-19 09:43:00,
2013-06-19 03:22:00,64.0,60.0,29.81,North,0,0.0,-999.0,87,0.00,,,-99.99,,2013-06-19 10:22:00,
2013-06-19 03:33:00,64.0,60.0,29.81,North,0,0.0,-999.0,87,0.00,,,-99.99,,2013-06-19 10:33:00,
2013-06-19 03:42:00,64.0,60.0,29.81,North,0,0.0,-999.0,87,0.00,,,-99.99,,2013-06-19 10:42:00,
2013-06-19 04:33:00,64.0,59.0,29.81,North,0,0.0,-999.0,85,0.00,,,-99.99,,2013-06-19 11:33:00,
2013-06-19 04:42:00,64.0,59.0,29.81,North,0,0.0,-999.0,85,0.00,,,-99.99,,2013-06-19 11:42:00,
2013-06-19 05:34:00,64.0,59.0,29.81,North,0,0.0,-999.0,85,0.00,,,-99.99,,2013-06-19 12:34:00,
2013-06-19 05:44:00,64.0,59.0,29.81,North,0,0.0,-999.0,85,0.00,,,-99.99,,2013-06-19 12:44:00,
2013-06-19 06:33:00,64.0,59.0,29.82,North,0,0.0,-999.0,85,0.00,,,-99.99,,2013-06-19 13:33:00,
2013-06-19 06:42:00,64.0,59.0,29.82,North,0,0.0,-999.0,85,0.00,,,-99.99,,2013-06-19 13:42:00,
2013-06-19 07:22:00,64.0,59.0,29.84,North,0,0.0,-999.0,85,0.00,,,-99.99,,2013-06-19 14:22:00,
2013-06-19 07:33:00,64.0,59.0,29.84,North,0,0.0,-999.0,85,0.00,,,-99.99,,2013-06-19 14:33:00,
2013-06-19 07:43:00,64.0,59.0,29.84,North,0,0.0,-999.0,85,0.00,,,-99.99,,2013-06-19 14:43:00,
2013-06-19 08:33:00,65.0,60.0,29.85,North,0,0.0,-999.0,84,0.00,,,-99.99,,2013-06-19 15:33:00,
2013-06-19 08:42:00,65.0,60.0,29.85,North,0,0.0,-999.0,84,0.00,,,-99.99,,2013-06-19 15:42:00,
2013-06-19 09:33:00,66.0,60.0,29.86,ENE,60,2.0,-999.0,82,0.00,,,-99.99,,2013-06-19 16:33:00,
2013-06-19 09:43:00,66.0,60.0,29.86,ENE,60,2.0,-999.0,82,0.00,,,-99.99,,2013-06-19 16:43:00,
2013-06-19 10:34:00,67.0,61.0,29.85,SSW,200,6.0,-999.0,80,0.00,,,-99.99,,2013-06-19 17:34:00,
2013-06-19 10:43:00,67.0,61.0,29.85,SSW,200,6.0,-999.0,80,0.00,,,-99.99,,2013-06-19 17:43:00,
2013-06-19 11:33:00,68.0,62.0,29.85,SSW,210,13.0,-999.0,80,0.00,,,-99.99,,2013-06-19 18:33:00,
2013-06-19 11:44:00,68.0,62.0,29.85,SSW,210,13.0,-999.0,80,0.00,,,-99.99,,2013-06-19 18:44:00,
2013-06-19 12:32:00,70.0,62.0,29.85,SSW,210,13.0,-999.0,76,0.00,,,-99.99,,2013-06-19 19:32:00,
2013-06-19 12:43:00,70.0,62.0,29.85,SSW,210,13.0,-999.0,76,0.00,,,-99.99,,2013-06-19 19:43:00,
2013-06-19 13:33:00,71.0,63.0,29.85,SSW,210,13.0,-999.0,76,0.00,,,-99.99,,2013-06-19 20:33:00,
2013-06-19 13:42:00,71.0,63.0,29.85,SSW,210,13.0,-999.0,76,0.00,,,-99.99,,2013-06-19 20:42:00,
2013-06-19 14:22:00,70.0,62.0,29.84,SSW,210,13.0,-999.0,77,0.00,,,-99.99,,2013-06-19 21:22:00,
2013-06-19 14:33:00,70.0,62.0,29.84,SSW,210,13.0,-999.0,77,0.00,,,-99.99,,2013-06-19 21:33:00,
2013-06-19 14:44:00,70.0,62.0,29.84,SSW,210,13.0,-999.0,77,0.00,,,-99.99,,2013-06-19 21:44:00,
2013-06-19 15:22:00,72.0,64.0,29.83,SSW,210,14.0,-999.0,75,0.00,,,-99.99,,2013-06-19 22:22:00,
2013-06-19 15:34:00,72.0,64.0,29.83,SSW,210,14.0,-999.0,75,0.00,,,-99.99,,2013-06-19 22:34:00,
2013-06-19 15:42:00,72.0,64.0,29.83,SSW,210,14.0,-999.0,75,0.00,,,-99.99,,2013-06-19 22:42:00,
2013-06-19 16:33:00,71.0,63.0,29.82,NW,310,5.0,-999.0,76,0.00,,,-99.99,,2013-06-19 23:33:00,
2013-06-19 16:43:00,71.0,63.0,29.82,NW,310,5.0,-999.0,76,0.00,,,-99.99,,2013-06-19 23:43:00,
2013-06-19 17:33:00,71.0,65.0,29.80,SSW,210,9.0,-999.0,80,0.00,,,-99.99,,2013-06-20 00:33:00,
2013-06-19 17:44:00,71.0,65.0,29.80,SSW,210,9.0,-999.0,80,0.00,,,-99.99,,2013-06-20 00:44:00,
2013-06-19 18:33:00,69.0,63.0,29.80,SSW,210,5.0,-999.0,82,0.00,,,-99.99,,2013-06-20 01:33:00,
2013-06-19 18:44:00,69.0,63.0,29.80,SSW,210,5.0,-999.0,82,0.00,,,-99.99,,2013-06-20 01:44:00,
2013-06-19 19:33:00,68.0,63.0,29.79,North,0,0.0,-999.0,85,0.00,,,-99.99,,2013-06-20 02:33:00,
2013-06-19 19:43:00,68.0,63.0,29.79,North,0,0.0,-999.0,85,0.00,,,-99.99,,2013-06-20 02:43:00,
2013-06-19 20:33:00,67.0,63.0,29.79,SSW,210,3.0,-999.0,87,0.00,,,-99.99,,2013-06-20 03:33:00,
2013-06-19 20:43:00,67.0,63.0,29.79,SSW,210,3.0,-999.0,87,0.00,,,-99.99,,2013-06-20 03:43:00,
2013-06-19 21:22:00,66.0,63.0,29.80,North,0,0.0,-999.0,90,0.00,,,-99.99,,2013-06-20 04:22:00,
2013-06-19 21:33:00,66.0,63.0,29.80,North,0,0.0,-999.0,90,0.00,,,-99.99,,2013-06-20 04:33:00,
2013-06-19 21:43:00,66.0,63.0,29.80,North,0,0.0,-999.0,90,0.00,,,-99.99,,2013-06-20 04:43:00,
2013-06-19 22:22:00,66.0,63.0,29.81,SSE,150,3.0,-999.0,90,0.00,,,-99.99,,2013-06-20 05:22:00,
2013-06-19 22:33:00,66.0,63.0,29.81,SSE,150,3.0,-999.0,90,0.00,,,-99.99,,2013-06-20 05:33:00,
2013-06-19 22:44:00,66.0,63.0,29.81,SSE,150,3.0,-999.0,90,0.00,,,-99.99,,2013-06-20 05:44:00,
2013-06-19 23:33:00,66.0,63.0,29.82,SE,130,4.0,-999.0,91,0.00,,,-99.99,,2013-06-20 06:33:00,
2013-06-19 23:43:00,66.0,63.0,29.82,SE,130,4.0,-999.0,91,0.00,,,-99.99,,2013-06-20 06:43:00,